Location: Newark
(35.2672°N, 80.7344°W)
Time: 18:47:28
(UTC+00:00)

Vanguard 2 Rocket - Visible Passes

Search period start: 19 January 2020 00:00
Search period end: 29 January 2020 00:00
Orbit: 554 x 3326 km, 32.9° (Epoch: 18 January)

Date Brightness Start Highest point End Pass type
(mag) Time Alt. Az. Time Alt. Az. Time Alt. Az.
19 Jan 8.2 11:00:36 10° SW 11:05:13 37° SSE 11:12:24 10° E visible
20 Jan 8.3 10:04:31 18° S 10:06:12 22° SE 10:10:51 10° E visible
21 Jan 7.6 11:14:31 11° SW 11:19:05 51° SSE 11:26:45 10° E visible
22 Jan 7.6 10:18:39 29° S 10:19:57 34° SSE 10:25:34 10° E visible
23 Jan 8.9 09:22:44 16° ESE 09:22:44 16° ESE 09:24:33 10° ESE visible
23 Jan 7.2 11:28:34 11° WSW 11:33:11 65° SSE 11:41:00 10° E visible
24 Jan 7.0 10:32:36 37° SSW 10:33:54 48° SSE 10:39:57 10° E visible
25 Jan 8.3 09:36:36 24° ESE 09:36:36 24° ESE 09:39:19 10° E visible
25 Jan 7.0 11:42:37 10° W 11:47:22 72° S 11:55:13 10° E visible
26 Jan 6.6 10:46:24 37° SW 10:48:02 62° S 10:54:13 10° E visible
27 Jan 7.7 09:50:21 33° ESE 09:50:21 33° ESE 09:53:44 10° E visible
27 Jan 7.1 11:56:52 10° W 12:01:36 70° S 12:09:24 10° E visible
28 Jan 6.5 11:00:06 30° WSW 11:02:14 69° S 11:08:27 10° E visible
